Volver al catálogo

DMSP 5D-3 F18 DEB

ActivoSSO
NORAD 36099·DEBRIS·🇺🇸 United States

Lanzado Oct 18, 2009 desde Vandenberg Space Force Base

Loading…

Próximos Pases (próximas 24 horas)

TLE

ActualizadoSource: Space-Track

Época: Sep 14, 2026, 13:15 UTC

1 36099U 09057E   26257.55211685  .00002505  00000-0  77147-3 0  9994
2 36099  98.6366 351.8792 0008904  94.0058 266.2149 14.42352019873165

Sigue DMSP 5D-3 F18 DEB en tiempo real con AllMySat

Download on the App Store